This demonstration page uses our WeatherBlox Daily Observations layout. Learn more.

Left ArrowRight Arrow

40.92501, -98.34201

Hourly Observations for September 29, 2022

Temp ( °F °C ) Dew Point ( °F °C ) Humidity (%) Winds ( mph kmh ) Pressure ( in mb ) Visibility ( mi km ) Precip ( " mm )
12:53 am 00:53 Clear 54 12.2 30 -1.1 40 40 SSE 16 26 30.33 1027 10 16 0.00 0.00
1:53 am 01:53 Clear 53 11.7 31 -0.6 43 43 SSE 13 20 30.31 1027 10 16 0.00 0.00
2:53 am 02:53 Clear 52 11.1 32 0 46 46 SSE 12 19 30.32 1027 10 16 0.00 0.00
3:53 am 03:53 Clear 50 10 33 0.6 52 52 S 12 19 30.32 1027 10 16 0.00 0.00
4:53 am 04:53 Clear 50 10 33 0.6 52 52 S 13 20 30.30 1026 10 16 0.00 0.00
5:53 am 05:53 Clear 49 9.4 34 1.1 56 56 S 14 22 30.29 1026 10 16 0.00 0.00
6:53 am 06:53 Clear 49 9.4 34 1.1 56 56 S 12 19 30.29 1026 10 16 0.00 0.00
7:53 am 07:53 Sunny 49 9.4 35 1.7 59 59 SSE 13 20 30.29 1026 10 16 0.00 0.00
8:53 am 08:53 Sunny 53 11.7 35 1.7 50 50 SSE 16 26 30.28 1025 10 16 0.00 0.00
9:53 am 09:53 Sunny 59 15 37 2.8 44 44 S 13 20 30.27 1025 10 16 0.00 0.00
10:53 am 10:53 Sunny 65 18.3 40 4.4 40 40 S 15 24 30.27 1025 10 16 0.00 0.00
11:53 am 11:53 Sunny 70 21.1 41 5 35 35 S 15 24 30.23 1024 10 16 0.00 0.00
12:53 pm 12:53 Sunny 75 23.9 43 6.1 32 32 S 18 30 30.20 1023 10 16 0.00 0.00
1:53 pm 13:53 Sunny 79 26.1 44 6.7 29 29 SSE 14 22 30.17 1022 10 16 0.00 0.00
2:53 pm 14:53 Sunny 80 26.7 45 7.2 29 29 SSE 17 28 30.14 1021 10 16 0.00 0.00
3:53 pm 15:53 Sunny 80 26.7 45 7.2 29 29 SSE 17 28 30.11 1020 10 16 0.00 0.00
4:53 pm 16:53 Sunny 80 26.7 46 7.8 30 30 SSE 17 28 30.09 1019 10 16 0.00 0.00
5:53 pm 17:53 Sunny 77 25 45 7.2 32 32 SSE 21 33 30.08 1019 10 16 0.00 0.00
6:53 pm 18:53 Sunny 74 23.3 45 7.2 36 36 SSE 16 26 30.07 1018 10 16 0.00 0.00
7:53 pm 19:53 Clear 70 21.1 46 7.8 42 42 SSE 12 19 30.09 1019 10 16 0.00 0.00
8:53 pm 20:53 Clear 67 19.4 46 7.8 47 47 SSE 13 20 30.09 1019 10 16 0.00 0.00
9:53 pm 21:53 Clear 64 17.8 46 7.8 52 52 SE 9 15 30.11 1020 10 16 0.00 0.00
10:53 pm 22:53 Clear 62 16.7 46 7.8 56 56 SSE 14 22 30.09 1019 10 16 0.00 0.00
11:53 pm 23:53 Clear 60 15.6 46 7.8 60 60 SSE 12 19 30.10 1019 10 16 0.00 0.00

Powered by AerisWeather